Location: ??????
(55.7522°N, 37.6156°E)
Time: 09:30:04
(UTC+00:00)

USA 229 DEB - Visible Passes

Search period start: 13 December 2025 00:00
Search period end: 23 December 2025 00:00
Orbit: 863 x 1348 km, 63.4° (Epoch: 02 December)

Date Brightness Start Highest point End Pass type
(mag) Time Alt. Az. Time Alt. Az. Time Alt. Az.
13 Dec 4.4 01:22:18 50° NNE 01:22:18 50° NNE 01:29:28 10° E visible
13 Dec 3.9 03:09:43 30° NW 03:13:43 87° NE 03:21:44 10° SE visible
13 Dec 4.7 04:57:41 10° WNW 05:04:19 37° WSW 05:11:30 10° S visible
13 Dec 6.4 22:51:25 11° ENE 22:51:25 11° ENE 22:51:39 10° ENE visible
14 Dec 5.0 00:38:51 37° NE 00:38:51 37° NE 00:43:57 10° E visible
14 Dec 4.0 02:26:17 46° NW 02:28:36 72° NNE 02:36:31 10° ESE visible
14 Dec 4.3 04:13:42 15° WNW 04:19:32 50° SW 04:27:13 10° SSE visible
14 Dec 5.6 23:55:25 24° ENE 23:55:25 24° ENE 23:58:29 10° ENE visible
15 Dec 4.1 01:42:51 59° N 01:43:25 61° NNE 01:51:10 10° ESE visible
15 Dec 4.0 03:30:17 26° WNW 03:34:40 66° SW 03:42:36 10° SSE visible
15 Dec 6.2 23:12:01 14° ENE 23:12:01 14° ENE 23:13:04 10° ENE visible
16 Dec 4.6 00:59:28 48° NE 00:59:28 48° NE 01:05:42 10° E visible
16 Dec 3.8 02:46:54 43° NW 02:49:41 83° SW 02:57:43 10° SE visible
16 Dec 4.9 04:34:19 12° WNW 04:40:04 31° WSW 04:46:52 10° S visible
17 Dec 5.3 00:16:06 31° ENE 00:16:06 31° ENE 00:20:12 10° E visible
17 Dec 3.8 02:03:32 67° NNW 02:04:38 80° NE 02:12:37 10° ESE visible
17 Dec 4.5 03:50:59 22° WNW 03:55:23 42° WSW 04:02:48 10° S visible
17 Dec 6.0 23:32:47 18° ENE 23:32:47 18° ENE 23:34:42 10° ENE visible
18 Dec 4.2 01:20:13 63° ENE 01:20:13 63° ENE 01:27:20 10° ESE visible
18 Dec 4.1 03:07:40 37° WNW 03:10:33 56° SW 03:18:22 10° SSE visible
18 Dec 5.4 04:55:39 10° WNW 05:00:19 18° WSW 05:05:14 10° SSW visible
19 Dec 5.0 00:36:57 39° E 00:36:57 39° E 00:41:56 10° E visible
19 Dec 3.8 02:24:25 62° W 02:25:38 73° SW 02:33:38 10° SE visible
19 Dec 5.0 04:11:51 17° WNW 04:15:48 26° WSW 04:22:03 10° SSW visible
19 Dec 5.8 23:53:45 22° E 23:53:45 22° E 23:56:26 10° E visible
20 Dec 3.9 01:41:12 79° SE 01:41:12 79° SE 01:48:39 10° SE visible
20 Dec 4.6 03:28:39 29° W 03:31:10 35° WSW 03:38:15 10° S visible
20 Dec 6.4 23:10:36 11° E 23:10:36 11° E 23:10:56 10° E visible
21 Dec 4.7 00:58:03 46° ESE 00:58:03 46° ESE 01:03:28 10° ESE visible
21 Dec 4.1 02:45:30 46° WSW 02:46:24 48° SW 02:54:02 10° SSE visible
21 Dec 5.5 04:32:58 11° W 04:35:56 14° WSW 04:39:37 10° SW visible
22 Dec 5.6 00:14:59 26° E 00:14:59 26° E 00:18:07 10° ESE visible
22 Dec 4.1 02:02:26 59° SSW 02:02:26 59° SSW 02:09:27 10° SSE visible
22 Dec 5.1 03:49:54 20° W 03:51:29 21° WSW 03:57:03 10° SSW visible
22 Dec 6.3 23:31:58 13° E 23:31:58 13° E 23:32:41 10° E visible
